User: anonymous   Login
Location: Unspecified
(0.0000°N, 0.0000°E)
Time: 03:33:43
(UTC+02:00)
Language:

Cosmos 1295 Rocket - Orbit

View from above orbital plane
View from above orbital plane
View from above satellite
View from above satellite

Ground track
Ground track

The orbit data is extracted from the following two-line orbital elements,

1 12682U 81077B   18112.56285599 -.00000043 +00000-0 -57374-4 0  9993
2 12682 082.9150 144.7527 0033655 193.8677 166.1560 13.78547118845220
Epoch (UTC): 22 April 2018 13:30:30
Eccentricity: 0.0033655
inclination: 82.9150°
perigee height: 944 km
apogee height: 994 km
right ascension of ascending node: 144.7527°
argument of perigee: 193.8677°
revolutions per day: 13.78547118
mean anomaly at epoch: 166.1560°
orbit number at epoch: 84522

The dashed part of the orbit path shows where the satellite is in the earth's shadow,  

DLR